Regional Weather Roundup
Issued by NWS

Home | Current Version | Previous Version | Text Only | Print | Product List | Glossary Off
Versions: 1 2 3 4 5 6 7 8 9 10 11 12 13 14 15 16 17 18 19 20 21 22 23 24 25 26 27 28 29 30 31 32 33 34 35 36 37 38 39 40 41 42 43 44 45 46 47 48 49 50

882
ASUS43 KLOT 141303
RWRIL

ILLINOIS REGIONAL WEATHER ROUNDUP
NATIONAL WEATHER SERVICE CHICAGO/ROMEOVILLE IL
700 AM CST SUN FEB 14 2016

NOTE: "FAIR" INDICATES FEW OR NO CLOUDS BELOW 12,000 FEET WITH NO
SIGNIFICANT WEATHER AND/OR OBSTRUCTIONS TO VISIBILITY.

* THESE STATIONS ARE NOT UNDER NWS QUALITY CONTROL. THEY ALSO MAY NOT
  REPORT WEATHER SUCH AS PRECIPITATION OR FOG.

ILZ001-002-007-009-015-016-024-141400-
NORTHWEST ILLINOIS

CITY           SKY/WX    TMP DP  RH WIND       PRES   REMARKS
MOLINE         CLOUDY    17  10  74 SE14      30.20F WCI   3
STERLING*      CLOUDY    16   7  67 SE12G21   30.22F WCI   3
$$

ILZ003-004-008-010-011-017-018-141400-
NORTH CENTRAL ILLINOIS

CITY           SKY/WX    TMP DP  RH WIND       PRES   REMARKS
ROCKFORD       CLOUDY    14   3  61 E13       30.28F WCI   0
FREEPORT*      CLOUDY    14   6  72 SE15      30.26F WCI  -2
ROCHELLE*      FLURRIES  14   8  78 SE16      30.28F WCI  -2
DE KALB*       MOCLDY    13   5  69 SE13      30.29F WCI  -1
$$

ILZ005-006-012>014-019>023-141400-
NORTHEAST ILLINOIS

CITY           SKY/WX    TMP DP  RH WIND       PRES   REMARKS
CHICAGO-OHARE  MOCLDY    14   2  58 SE13      30.35F WCI   0
CHICAGO-MIDWAY MOCLDY    15   0  51 SE13      30.37F WCI   1
AURORA         CLOUDY    14   3  61 E12       30.32F WCI   0
LANSING*       MOCLDY    14   3  62 SE8       30.38F WCI   2
WAUKEGAN       CLOUDY    10   1  67 S6        30.34F WCI   0
DUPAGE AIRPORT CLOUDY    13   1  59 SE12      30.32F WCI  -1
WHEELING       MOCLDY    14   1  56 SE9       30.36F WCI   2
NORTHERLY ISL    N/A     15   5  64 SE18        N/A  WCI  -1
$$

LMZ740>746-141400-
SOUTHERN LAKE MICHIGAN

STATION/POSITION SKY/WX   TEMP    WIND        PRES    VSBY  WAVE
                          AIR SEA DIR/SP/G                  HT/PER
                          (F)     (DEG/KT/KT) (MB)    (MI)  (FT/S)
HARRISON CRIB              16     160/ 18/ 23   N/A
BURNHAM HARBOR             15     130/ 16/ 17   N/A
CALUMET HARBOR             13     150/ 12/ 17 1028.2F
MICHIGAN CITY               9     110/  5/  7   N/A
$$

ILZ025>027-034>036-040-047-049-050-058-095>099-141400-
WEST-CENTRAL ILLINOIS

CITY           SKY/WX    TMP DP  RH WIND       PRES   REMARKS
QUINCY         CLOUDY    20  11  68 SE15G23   30.13F WCI   6
MACOMB*        CLOUDY    17  14  89 SE17G23   30.20F WCI   1
$$

ILZ028>032-037-038-041>044-048-051>054-059>061-141400-
CENTRAL ILLINOIS

CITY           SKY/WX    TMP DP  RH WIND       PRES   REMARKS
BLOOMINGTON    FLURRIES  15  11  84 SE18      30.26F WCI  -2
DECATUR        CLOUDY    16  10  77 SE22G28   30.26F WCI  -2
PEORIA         CLOUDY    16  10  77 SE13      30.24F WCI   2
LINCOLN*       CLOUDY    17  13  86 SE13G23   30.24F WCI   3
SPRINGFIELD    CLOUDY    19  12  74 SE20G29   30.22F WCI   3
TAYLORVILLE    NOT AVBL
$$

ILZ033-039-045-046-055>057-062-063-141400-
EAST-CENTRAL ILLINOIS

CITY           SKY/WX    TMP DP  RH WIND       PRES   REMARKS
CHAMPAIGN      CLOUDY    16  11  80 SE21G26   30.30F WCI  -1
MATTOON        CLOUDY    16  10  77 SE17      30.30F WCI   0
$$

ILZ079-100>102-141400-
SOUTHWEST ILLINOIS

CITY           SKY/WX    TMP DP  RH WIND       PRES   REMARKS
ALTON          CLOUDY    21  10  63 SE17G23   30.21F WCI   7
BELLEVILLE     CLOUDY    22  14  70 SE17      30.22F WCI   8
CAHOKIA*       CLOUDY    23  12  62 SE15      30.22F WCI  10
SPARTA*        CLOUDY    22  12  64 SE16      30.25F WCI   8
$$

ILZ064>066-069>071-074>076-080>082-084>086-088>090-092>094-141400-
SOUTH-CENTRAL ILLINOIS

CITY           SKY/WX    TMP DP  RH WIND       PRES   REMARKS
CARBONDALE     CLOUDY    24  10  55 E10       30.27F WCI  14
MARION         CLOUDY    23 N/A N/A E14       30.28F WCI  11
MT. VERNON     CLOUDY    21   9  58 E10       30.29F WCI  10
CENTRALIA*     CLOUDY    22  11  61 E10G20    30.26F WCI  11
SALEM*         CLOUDY    23   8  52 E10G17    30.27F WCI  12
$$

ILZ067-068-072-073-078-083-087-091-141400-
SOUTHEAST ILLINOIS

CITY           SKY/WX    TMP DP  RH WIND       PRES   REMARKS
LAWRENCEVILLE  LGT SNOW  18  14  84 E15       30.38F FOG     WCI   4
HARRISBURG*    CLOUDY    22  18  84 E14       30.32F WCI   9
ROBINSON*      CLOUDY    17  13  85 E12G17    30.39F WCI   4
$$

ABBREVIATIONS USED IN REMARKS
   TC - TEMPERATURE IN CELSIUS
  WCI - WIND CHILL INDEX
   HX - HEAT INDEX
  VSB - VISIBILITY
$$





USA.gov is the U.S. government's official web portal to all federal, state and local government web resources and services.